Location: Burleson Alternative School
(32.5290°N, 97.3406°W)
Time: 03:04:30
(UTC+00:00)

Courier 1B Rocket - Pass Details

Date: 13 November 2024
Orbit: 920 x 1201 km, 28.2° (Epoch: 03 December)

Event Time Altitude Azimuth Distance (km) Brightness Sun altitude
Rises 00:46:38 0° 266° (W) 3,645 9.8 -16.4°
Reaches altitude 10° 00:49:22 10° 262° (W) 2,667 8.6 -16.9°
Maximum altitude 00:55:36 58° 185° (S) 1,068 5.3 -18.2°
Enters shadow 00:59:11 25° 116° (ESE) 1,760 5.9 -19.0°
